Change the Weather History Date:

Sunday, October 9, 2011

  Actual Average Record
Temperature  
Mean Temperature 37 °F -  
Max Temperature 50 °F 61 °F 77 °F (1996)
Min Temperature 24 °F 28 °F 19 °F (1990)
Degree Days  
Heating Degree Days 28    
Moisture  
Dew Point 26 °F    
Average Humidity 88    
Maximum Humidity 100    
Minimum Humidity 39    
Precipitation  
Precipitation 0.00 in - - ()
Sea Level Pressure  
Sea Level Pressure 30.17 in    
Wind  
Wind Speed 5 mph (WNW)    
Max Wind Speed 12 mph    
Max Gust Speed -    
Visibility 4 miles    
Events Fog    
Averages and records for this station are not official NWS values.
T = Trace of Precipitation, MM = Missing Value Source: NWS Daily Summary

Daily Weather History Graph

Daily Weather History Graph

Search for Another Location

Airport or City:

Trip Planner

Search our weather history database for the weather conditions in past years. The results will help you decide how hot, cold, wet, or windy it might be!

Date:

Astronomy

Oct. 09, 2011 Rise Set
Actual Time 7:31 AM MDT 7:00 PM MDT
Civil Twilight 7:04 AM MDT 7:26 PM MDT
Nautical Twilight 6:34 AM MDT 7:56 PM MDT
Astronomical Twilight 6:04 AM MDT 8:26 PM MDT
Moon 5:37 PM MDT (10/9) 5:21 AM MDT (10/9)
Length of Visible Light 12h 21m
Length of Day
11h 28m
Waxing Gibbous, 95% of the Moon is Illuminated
Oct 9
Waxing Gibbous
Oct 11
Full
Oct 19
Last Quarter
Oct 26
New
Nov 2
First Quarter

Hourly Weather History & Observations

Time (MDT) Temp. Windchill Dew Point Humidity Pressure Visibility Wind Dir Wind Speed Gust Speed Precip Events Conditions
12:53 AM 28.9 °F 25.2 °F 27.0 °F 92% 30.11 in 10.0 mi NW 3.5 mph - N/A   Clear
1:53 AM 28.0 °F 24.2 °F 26.1 °F 92% 30.10 in 10.0 mi NW 3.5 mph - N/A   Clear
2:35 AM 28.4 °F 21.2 °F 26.6 °F 93% 30.23 in 1.8 mi West 6.9 mph - N/A   Clear
2:46 AM 28.4 °F 21.2 °F 26.6 °F 93% 30.23 in 1.5 mi WNW 6.9 mph - N/A   Partly Cloudy
2:51 AM 28.4 °F 21.2 °F 26.6 °F 93% 30.23 in 3.0 mi WNW 6.9 mph - N/A   Clear
2:53 AM 28.0 °F 21.7 °F 26.1 °F 92% 30.11 in 6.0 mi WNW 5.8 mph - N/A   Clear
3:53 AM 27.0 °F 21.6 °F 25.0 °F 92% 30.11 in 10.0 mi West 4.6 mph - N/A   Clear
4:17 AM 26.6 °F 21.2 °F 24.8 °F 93% 30.21 in 1.8 mi West 4.6 mph - N/A   Clear
4:20 AM 26.6 °F 20.0 °F 24.8 °F 93% 30.21 in 1.0 mi West 5.8 mph - N/A   Mist
4:27 AM 26.6 °F 19.1 °F 24.8 °F 93% 30.21 in 0.5 mi West 6.9 mph - N/A Fog Light Freezing Fog
4:33 AM 26.6 °F 19.1 °F 24.8 °F 93% 30.21 in 1.2 mi West 6.9 mph - N/A   Partly Cloudy
4:53 AM 26.1 °F 17.6 °F 25.0 °F 96% 30.12 in 1.0 mi West 8.1 mph - N/A   Clear
5:04 AM 26.6 °F 19.1 °F 26.6 °F 100% 30.22 in 0.5 mi West 6.9 mph - N/A Fog Light Freezing Fog
5:06 AM 28.4 °F 21.2 °F 26.6 °F 93% 30.22 in 0.2 mi West 6.9 mph - N/A Fog Light Freezing Fog
5:13 AM 28.4 °F 20.4 °F 26.6 °F 93% 30.22 in 0.2 mi WNW 8.1 mph - N/A Fog Light Freezing Fog
5:53 AM 27.0 °F 20.5 °F 26.1 °F 96% 30.11 in 0.2 mi NW 5.8 mph - N/A Fog Light Freezing Fog
5:55 AM 26.6 °F 20.0 °F 26.6 °F 100% 30.21 in 0.5 mi NW 5.8 mph - N/A Fog Light Freezing Fog
5:59 AM 26.6 °F 20.0 °F 26.6 °F 100% 30.21 in 0.2 mi NW 5.8 mph - N/A Fog Light Freezing Fog
6:14 AM 26.6 °F 20.0 °F 26.6 °F 100% 30.21 in 0.2 mi WNW 5.8 mph - N/A Fog Light Freezing Fog
6:19 AM 26.6 °F 20.0 °F 26.6 °F 100% 30.22 in 0.5 mi WNW 5.8 mph - N/A Fog Light Freezing Fog
6:29 AM 28.4 °F 22.2 °F 26.6 °F 93% 30.22 in 1.0 mi WNW 5.8 mph - N/A   Overcast
6:44 AM 26.6 °F 21.2 °F 26.6 °F 100% 30.22 in 3.0 mi NW 4.6 mph - N/A   Overcast
6:53 AM 27.0 °F 20.5 °F 26.1 °F 96% 30.13 in 2.5 mi WNW 5.8 mph - N/A   Overcast
7:01 AM 26.6 °F 19.1 °F 26.6 °F 100% 30.22 in 0.8 mi NW 6.9 mph - N/A   Overcast
7:07 AM 26.6 °F 21.2 °F 26.6 °F 100% 30.21 in 1.0 mi West 4.6 mph - N/A   Overcast
7:16 AM 26.6 °F 21.2 °F 26.6 °F 100% 30.21 in 3.0 mi NNW 4.6 mph - N/A   Overcast
7:38 AM 24.8 °F 20.5 °F 21.2 °F 86% 30.21 in 6.0 mi NNW 3.5 mph - N/A   Scattered Clouds
7:43 AM 24.8 °F 17.9 °F 21.2 °F 86% 30.21 in 1.2 mi NNW 5.8 mph - N/A   Mostly Cloudy
7:46 AM 24.8 °F 17.9 °F 23.0 °F 93% 30.21 in 0.2 mi NNW 5.8 mph - N/A Fog Light Freezing Fog
7:53 AM 25.0 °F 19.3 °F 24.1 °F 96% 30.14 in 0.2 mi NW 4.6 mph - N/A Fog Light Freezing Fog
8:01 AM 26.6 °F 20.0 °F 24.8 °F 93% 30.22 in 0.5 mi WNW 5.8 mph - N/A Fog Light Freezing Fog
8:09 AM 26.6 °F 20.0 °F 24.8 °F 93% 30.22 in 2.0 mi WNW 5.8 mph - N/A   Overcast
8:17 AM 26.6 °F 20.0 °F 24.8 °F 93% 30.22 in 10.0 mi NW 5.8 mph - N/A   Overcast
8:27 AM 26.6 °F 19.1 °F 26.6 °F 100% 30.22 in 10.0 mi NW 6.9 mph - N/A   Mostly Cloudy
8:39 AM 26.6 °F 18.2 °F 26.6 °F 100% 30.23 in 1.8 mi NW 8.1 mph - N/A   Mostly Cloudy
8:49 AM 26.6 °F 19.1 °F 26.6 °F 100% 30.23 in 0.5 mi NNW 6.9 mph - N/A Fog Light Freezing Fog
8:50 AM 27.0 °F 19.5 °F 26.1 °F 96% 30.14 in 0.5 mi NNW 6.9 mph - N/A Fog Light Freezing Fog
8:56 AM 28.4 °F 22.2 °F 26.6 °F 93% 30.22 in 0.2 mi NNW 5.8 mph - N/A Fog Light Freezing Fog
9:03 AM 28.4 °F 24.6 °F 26.6 °F 93% 30.23 in 0.2 mi NNW 3.5 mph - N/A Fog Light Freezing Fog
9:12 AM 30.2 °F 25.4 °F 28.4 °F 93% 30.23 in 1.0 mi NNW 4.6 mph - N/A   Overcast
9:20 AM 30.2 °F 25.4 °F 28.4 °F 93% 30.23 in 10.0 mi NW 4.6 mph - N/A   Mostly Cloudy
9:41 AM 30.2 °F 25.4 °F 30.2 °F 100% 30.22 in 10.0 mi North 4.6 mph - N/A   Mostly Cloudy
9:53 AM 30.9 °F 25.2 °F 30.0 °F 96% 30.13 in 10.0 mi North 5.8 mph - N/A   Overcast
10:37 AM 33.8 °F - 30.2 °F 87% 30.22 in 10.0 mi Calm Calm - N/A   Scattered Clouds
10:53 AM 35.1 °F - 32.0 °F 89% 30.11 in 10.0 mi Calm Calm - N/A   Clear
11:53 AM 43.0 °F - 26.1 °F 51% 30.06 in 10.0 mi Calm Calm - N/A   Clear
1:53 PM 46.0 °F 43.9 °F 27.0 °F 47% 30.04 in 10.0 mi Variable 4.6 mph - N/A   Clear
2:53 PM 48.0 °F - 26.1 °F 42% 30.01 in 10.0 mi Variable 5.8 mph - N/A   Clear
3:53 PM 50.0 °F - 26.1 °F 39% 29.99 in 10.0 mi ESE 11.5 mph - N/A   Clear
4:53 PM 50.0 °F - 26.1 °F 39% 29.99 in 10.0 mi South 9.2 mph - N/A   Clear
6:53 PM 42.1 °F 38.4 °F 28.0 °F 58% 30.01 in 10.0 mi SSE 5.8 mph - N/A   Clear
7:53 PM 36.0 °F 32.1 °F 28.9 °F 76% 30.06 in 10.0 mi South 4.6 mph - N/A   Clear
8:53 PM 35.1 °F 30.1 °F 28.0 °F 76% 30.06 in 10.0 mi SSE 5.8 mph - N/A   Partly Cloudy
9:53 PM 32.0 °F 27.5 °F 27.0 °F 82% 30.07 in 10.0 mi West 4.6 mph - N/A   Clear
11:53 PM 28.9 °F 21.9 °F 26.1 °F 89% 30.04 in 10.0 mi West 6.9 mph - N/A   Clear